Location: Atlantic Beach
(40.5890°N, 73.7290°W)
Time: 04:26:20
(UTC+00:00)

SeaSat 1 - Pass Details

Date: 29 October 2020
Orbit: 744 x 747 km, 108.0° (Epoch: 23 November)

Event Time Altitude Azimuth Distance (km) Brightness Sun altitude
Exits shadow 23:00:02 13° 48° (NE) 2,080 4.3 -13.0°
Maximum altitude 23:00:18 13° 45° (NE) 2,077 4.3 -13.0°
Drops below altitude 10° 23:02:25 10° 19° (NNE) 2,271 4.7 -13.4°
Sets 23:05:57 0° 353° (N) 3,200 5.7 -14.1°
